This demonstration page uses our WeatherBlox Daily Observations layout. Learn more.

Left ArrowRight Arrow

44.8408, -93.29828

Hourly Observations for March 20, 2018

Temp ( °F °C ) Dew Point ( °F °C ) Humidity (%) Winds ( mph kmh ) Pressure ( in mb ) Visibility ( mi km ) Precip ( " mm )
12:53 am 00:53 Cloudy 33 0.6 22 -5.6 64 64 NNE 8 13 30.07 1018 10 16 0.00 0.00
1:53 am 01:53 Cloudy 32 0 22 -5.6 66 66 NNE 10 17 30.08 1019 10 16 0.00 0.00
2:53 am 02:53 Cloudy 31 -0.6 21 -6.1 67 67 NE 10 17 30.07 1018 10 16 0.00 0.00
3:53 am 03:53 Cloudy 31 -0.6 21 -6.1 67 67 NE 8 13 30.06 1018 10 16 0.00 0.00
4:53 am 04:53 Cloudy 31 -0.6 20 -6.7 64 64 ENE 9 15 30.06 1018 10 16 0.00 0.00
5:53 am 05:53 Cloudy 31 -0.6 20 -6.7 64 64 ENE 8 13 30.06 1018 10 16 0.00 0.00
6:53 am 06:53 Cloudy with Light Snow 29 -1.7 23 -5 78 78 ENE 8 13 30.07 1018 5 8 0.00 0.03
7:53 am 07:53 Cloudy with Light Snow 29 -1.7 24 -4.4 82 82 ENE 8 13 30.08 1019 4 6 0.00 0.03
8:48 am 08:48 Cloudy with Light Snow 28 -2 25 -4 86 86 NE 7 11 30.09 1019 3 5 0.01 0.25
8:53 am 08:53 Cloudy with Light Snow 28 -2.2 26 -3.3 92 92 ENE 7 11 30.09 1019 3 5 0.01 0.25
8:59 am 08:59 Cloudy with Light Snow 28 -2.2 26 -3.3 92 92 NE 7 11 30.09 1019 2 3 0.01 0.25
9:20 am 09:20 Cloudy with Light Snow 29 -1.7 26 -3.3 89 89 VRB 7 11 30.09 1019 3 5 0.01 0.25
9:45 am 09:45 Cloudy with Light Snow 29 -1.7 26 -3.3 89 89 E 8 13 30.09 1019 3 5 0.02 0.51
9:53 am 09:53 Cloudy with Light Snow 29 -1.7 26 -3.3 89 89 ENE 8 13 30.09 1019 3 5 0.02 0.51
10:53 am 10:53 Cloudy with Light Snow 30 -1.1 26 -3.3 85 85 E 9 15 30.09 1019 3 5 0.01 0.25
11:04 am 11:04 Cloudy with Light Snow 29 -1.7 26 -3.3 89 89 E 9 15 30.09 1019 2 3 0.00 0.03
11:17 am 11:17 Cloudy with Light Snow 29 -1.7 27 -2.8 92 92 ESE 10 17 30.09 1019 2 3 0.01 0.25
11:28 am 11:28 Cloudy with Light Snow 29 -1.7 26 -3.3 89 89 SE 8 13 30.09 1019 3 5 0.01 0.25
11:53 am 11:53 Cloudy with Light Snow 29 -1.7 26 -3.3 89 89 ESE 8 13 30.09 1019 3 5 0.02 0.51
12:16 pm 12:16 Cloudy with Light Snow 29 -1.7 26 -3.3 89 89 ESE 8 13 30.09 1019 4 6 0.00 0.03
12:41 pm 12:41 Cloudy with Light Snow 30 -1.1 27 -2.8 88 88 ESE 8 13 30.09 1019 3 5 0.00 0.03
12:53 pm 12:53 Cloudy with Light Snow 29 -1.7 26 -3.3 89 89 SE 8 13 30.09 1019 5 8 0.00 0.03
1:53 pm 13:53 Cloudy with Light Snow 30 -1.1 26 -3.3 85 85 ESE 6 9 30.08 1019 5 8 0.01 0.25
2:05 pm 14:05 Cloudy with Light Snow 31 -0.6 26 -3.3 82 82 E 8 13 30.09 1019 6 10 0.00 0.03
2:16 pm 14:16 Cloudy with Light Snow 31 -0.6 27 -2.8 85 85 E 7 11 30.09 1019 6 10 0.00 0.03
2:53 pm 14:53 Cloudy with Light Snow 31 -0.6 27 -2.8 85 85 E 7 11 30.07 1018 6 10 0.00 0.03
3:44 pm 15:44 Cloudy with Light Snow 31 -0.6 27 -2.8 85 85 E 6 9 30.06 1018 6 10 0.01 0.25
3:53 pm 15:53 Cloudy with Light Snow 31 -0.6 26 -3.3 82 82 E 6 9 30.06 1018 6 10 0.01 0.25
4:08 pm 16:08 Cloudy with Light Snow 31 -0.6 26 -3.3 82 82 ENE 8 13 30.06 1018 6 10 0.00 0.03
4:53 pm 16:53 Cloudy with Light Snow 31 -0.6 26 -3.3 82 82 ENE 9 15 30.07 1018 5 8 0.00 0.03
5:50 pm 17:50 Cloudy with Light Snow 30 -1 25 -4 80 80 E 10 17 30.09 1019 5 8 0.00 0.03
5:53 pm 17:53 Cloudy with Light Snow 30 -1.1 24 -4.4 79 79 E 12 19 30.07 1018 5 8 0.00 0.03
6:43 pm 18:43 Cloudy with Light Snow 29 -1.7 25 -3.9 85 85 E 8 13 30.09 1019 4 6 0.00 0.03
6:53 pm 18:53 Cloudy with Light Snow 29 -1.7 26 -3.3 89 89 VRB 7 11 30.08 1019 4 6 0.00 0.03
7:06 pm 19:06 Cloudy with Light Snow 29 -1.7 26 -3.3 89 89 NE 7 11 30.09 1019 4 6 0.00 0.03
7:53 pm 19:53 Cloudy with Light Snow 29 -1.7 26 -3.3 89 89 NNE 8 13 30.09 1019 6 10 0.00 0.03
8:04 pm 20:04 Cloudy with Light Snow 29 -1.7 26 -3.3 89 89 NE 7 11 30.09 1019 6 10 0.00 0.03
8:53 pm 20:53 Cloudy with Light Snow 28 -2.2 24 -4.4 85 85 NNE 7 11 30.10 1019 8 13 0.00 0.03
9:53 pm 21:53 Cloudy 27 -2.8 24 -4.4 89 89 NNE 5 7 30.10 1019 10 16 0.00 0.03
10:53 pm 22:53 Cloudy 27 -2.8 23 -5 85 85 NNE 3 6 30.11 1020 10 16 0.00 0.00
11:53 pm 23:53 Mostly Cloudy 25 -3.9 23 -5 92 92 NNW 3 6 30.12 1020 10 16 0.00 0.00

Powered by AerisWeather